Regional Weather Roundup
Issued by NWS

Home | Current Version | Previous Version | Graphics & Text | Print | Product List | Glossary On
Versions: 1 2 3 4 5 6 7 8 9 10 11 12 13 14 15 16 17 18 19 20 21 22 23 24 25 26 27 28 29 30 31 32 33 34 35 36 37 38 39 40 41 42 43 44 45 46 47 48 49 50
000
ASUS45 KABQ 162001
RWRNM
NEW MEXICO REGIONAL WEATHER ROUNDUP
NATIONAL WEATHER SERVICE ALBUQUERQUE NM
100 PM MST MON JAN 16 2017

NOTE: "FAIR" MEANS FEW OR NO CLOUDS BELOW 12,000 FEET AGL WITH NO
       SIGNIFICANT WEATHER OR OBSTRUCTIONS TO VISION.

      THIS PRODUCT IS RELEASED AS TWO VERSIONS.  ONE VERSION NEAR
      THE TOP OF THE HOUR CONTAINING PRELIMINARY DATA FROM ALBUQUERQUE
      AND OTHER STATIONS.  A FINAL VERSION WITH ADDITIONAL DATA IS
      ISSUED ABOUT 10 MINUTES AFTER THE HOUR.

NMZ501-503-504-510>518-162100-
NORTHWEST PLATEAU/NORTHCENTRAL MOUNTAINS

CITY           SKY/WX    TMP DP  RH WIND       PRES   REMARKS
FARMINGTON     CLOUDY    38  30  73 W12       29.96S WCI  30
LOS ALAMOS     CLOUDY    35  35 100 S5        29.99S WCI  31
SANTA FE       CLOUDY    38  35  89 SW10      29.97F WCI  31
TAOS           CLOUDY    34  27  75 CALM      29.97S

$$
NMZ402-403-502-505>509-162100-
WESTCENTRAL MOUNTAINS/SOUTHWEST MOUNTAINS

CITY           SKY/WX    TMP DP  RH WIND       PRES   REMARKS
GALLUP         LGT RAIN  39  33  79 SW10      29.99F WCI  32
GRANTS         CLOUDY    43  31  63 W5        29.99F
SILVER CITY    PTSUNNY   47  35  65 NW8       29.99F

$$
NMZ407-409-411-412-162100-
SOUTHERN DESERTS

CITY           SKY/WX    TMP DP  RH WIND       PRES   REMARKS
DEMING         PTSUNNY   52  40  63 SW8       29.98F
LAS CRUCES     PTSUNNY   51  38  63 SW10      29.99F
HOLLOMAN AFB   FAIR      52  39  61 CALM      30.01F
ALAMOGORDO     FAIR      52  37  58 SE6       29.99F
T OR C         FAIR      48  39  71 SE6       29.96F

$$
NMZ519>523-162100-
CENTRAL VALLEYS/CENTRAL HIGHLANDS

CITY           SKY/WX    TMP DP  RH WIND       PRES   REMARKS
ALBUQUERQUE    PTSUNNY   45  35  68 VRB5      29.98F
DOUBLE EAGLE   PTSUNNY   43  37  81 VRB5      29.99F
MORIARTY ARPT  PTSUNNY   44  34  68 SW6       29.98F
CLINES CORNERS FAIR      38  32  79 W12       29.97F WCI  30
BELEN          LGT RAIN  44  39  81 E5        29.98F
SOCORRO        PTSUNNY   41  37  86 S9        30.00F

$$
NMZ524>526-539-540-162100-
SOUTHCENTRAL MOUNTAINS

CITY           SKY/WX    TMP DP  RH WIND       PRES   REMARKS
RUIDOSO        NOT AVBL

$$
NMZ527>531-162100-
NORTHEAST HIGHLANDS/NORTHEAST PLAINS

CITY           SKY/WX    TMP DP  RH WIND       PRES   REMARKS
LAS VEGAS      CLOUDY    32  30  92 S6        29.99S WCI  26
RATON          LGT SNOW  34  28  79 N13       29.96S WCI  25
CLAYTON        FLURRIES  35  33  92 NW14G20   29.97S WCI  26

$$
NMZ532>537-162100-
EASTCENTRAL PLAINS

CITY           SKY/WX    TMP DP  RH WIND       PRES   REMARKS
TUCUMCARI      FAIR      45  36  70 CALM      29.98F
CANNON AFB     PTSUNNY   48  45  87 N6        29.97F
CLOVIS AIRPORT CLOUDY    46  34  61 N7        29.98S

$$
NMZ028-029-538-162100-
SOUTHEAST PLAINS

CITY           SKY/WX    TMP DP  RH WIND       PRES   REMARKS
ROSWELL        FAIR      52  39  61 SE6       29.96F
ARTESIA        FAIR      55  41  58 NE6       29.96F
CARLSBAD       FAIR      60  40  47 S6        29.94F
HOBBS          MOSUNNY   57  41  54 S8        29.97F


$$



USA.gov is the U.S. government's official web portal to all federal, state and local government web resources and services.